Tracking 35035 objects as of 16-Aug-2026
HD Live streaming from Space Station
objects crossing your sky now

FLOCK 4G 13

Track FLOCK 4G 13 now!
10-day predictions
FLOCK 4G 13 is classified as:


NORAD ID: 62621
Int'l Code: 2025-009N
Launch date: January 14, 2025
Source: United States (US)
Launch site: AIR FORCE WESTERN TEST RANGE (AFWTR)

Uplink (MHz):
Downlink (MHz): 145.825/436.850
Beacon (MHz):
Mode: 1k2AFSK APRS
Call sign: BN0TIT
Status: Inactive

Your satellite tracking list
Your tracking list is empty




NASA's NSSDC Master Catalog

Two Line Element Set (TLE):
1 62621U 25009N   26228.53759164  .00088804  00000-0  13475-2 0  9993
2 62621  97.3909 313.2973 0003764 131.0711 229.0868 15.54292186 88349
Source of the keplerian elements: AFSPC